User: anonymous   Login
Location: Zagreb
(45.8000°N, 16.0000°E)
Time: 09:32:16
(UTC+01:00)
Language:

SR - Orbit

View from above orbital plane
View from above orbital plane
View from above satellite
View from above satellite

Ground track
Ground track

The orbit data is extracted from the following two-line orbital elements,

1    46U 60007B   20022.54269354 -.00000027 +00000-0 +17816-4 0  9994
2    46 066.6906 083.4673 0216718 241.6835 116.2261 14.49270230117820
Epoch (UTC): 22 January 2020 13:01:28
Eccentricity: 0.0216718
inclination: 66.6906°
perigee height: 574 km
apogee height: 882 km
right ascension of ascending node: 83.4673°
argument of perigee: 241.6835°
revolutions per day: 14.49270230
mean anomaly at epoch: 116.2261°
orbit number at epoch: 11782

The dashed part of the orbit path shows where the satellite is in the earth's shadow,  

DLR